Oakes, ND

7:45 AM CST on February 13, 2016 (GMT -0600)
Oakes

Weather History for K2D5 - October, 2012

Change the Weather History Date:

Friday, October 5, 2012

  Actual Average (KABR) Record (KABR)
Temperature  
Mean Temperature 32 °F 50 °F  
Max Temperature 39 °F 63 °F 96 °F (1963)
Min Temperature 24 °F 37 °F 19 °F (1935)
Degree Days  
Heating Degree Days 34 15  
Month to date heating degree days 71  
Since 1 July heating degree days 345  
Cooling Degree Days 0 0  
Month to date cooling degree days 0  
Year to date cooling degree days 523  
Moisture  
Dew Point 26 °F    
Average Humidity 78    
Maximum Humidity 100    
Minimum Humidity 56    
Precipitation  
Precipitation 0.03 in 0.08 in 3.10 in (1913)
Month to date precipitation 0.40  
Year to date precipitation 18.88  
Snow  
Snow 0.00 in - - ()
Month to date snowfall  
Since 1 July snowfall  
Snow Depth -    
Sea Level Pressure  
Sea Level Pressure 30.27 in    
Wind  
Wind Speed 13 mph (NW)    
Max Wind Speed 23 mph    
Max Gust Speed 29 mph    
Visibility 10 miles    
Events Rain    
T = Trace of Precipitation, MM = Missing Value Source: NWS Daily Summary

Daily Weather History Graph

Daily Weather History Graph

Search for Another Location

Airport or City:

Trip Planner

Search our weather history database for the weather conditions in past years. The results will help you decide how hot, cold, wet, or windy it might be!

Date:

Astronomy

Oct. 05, 2012 Rise Set
Actual Time 7:36 AM CDT 7:03 PM CDT
Civil Twilight 7:06 AM CDT 7:33 PM CDT
Nautical Twilight 6:32 AM CDT 8:08 PM CDT
Astronomical Twilight 5:56 AM CDT 8:43 PM CDT
Moon 10:12 PM CDT (10/5) 1:01 PM CDT (10/5)
Length of Visible Light 12h 26m
Length of Day
11h 26m
Waning Gibbous, 74% of the Moon is Illuminated
Oct 5
Waning Gibbous
Oct 8
Last Quarter
Oct 15
New
Oct 21
First Quarter
Oct 29
Full

Hourly Weather History & Observations

Time (CDT) Temp. Windchill Dew Point Humidity Pressure Visibility Wind Dir Wind Speed Gust Speed Precip Events Conditions
12:15 AM 32.0 °F 23.6 °F 28.4 °F 87% 30.26 in 10.0 mi West 10.4 mph - N/A   Clear
12:35 AM 32.0 °F 24.2 °F 28.4 °F 87% 30.26 in 10.0 mi WNW 9.2 mph - N/A   Unknown
12:55 AM 32.0 °F 23.0 °F 28.4 °F 87% 30.26 in 10.0 mi WNW 11.5 mph - N/A   Unknown
1:15 AM 32.0 °F 22.5 °F 28.4 °F 87% 30.26 in 10.0 mi WNW 12.7 mph - N/A   Unknown
1:35 AM 32.0 °F 23.0 °F 28.4 °F 87% 30.26 in 10.0 mi WNW 11.5 mph - N/A   Unknown
1:55 AM 32.0 °F 23.0 °F 26.6 °F 80% 30.26 in 10.0 mi WNW 11.5 mph - N/A   Unknown
2:15 AM 30.2 °F 20.8 °F 26.6 °F 86% 30.26 in 10.0 mi WNW 11.5 mph - N/A   Unknown
2:35 AM 30.2 °F 21.3 °F 26.6 °F 86% 30.26 in 10.0 mi WNW 10.4 mph - N/A   Unknown
3:15 AM 28.4 °F 18.5 °F 26.6 °F 93% 30.25 in 10.0 mi WNW 11.5 mph - N/A   Unknown
3:35 AM 26.6 °F 17.5 °F 24.8 °F 93% 30.25 in 10.0 mi West 9.2 mph - N/A   Unknown
3:55 AM 26.6 °F 18.2 °F 24.8 °F 93% 30.25 in 10.0 mi WNW 8.1 mph - N/A   Unknown
4:15 AM 24.8 °F 16.1 °F 24.8 °F 100% 30.25 in 10.0 mi WNW 8.1 mph - N/A   Unknown
4:35 AM 24.8 °F 15.3 °F 24.8 °F 100% 30.25 in 10.0 mi WNW 9.2 mph - N/A   Unknown
4:55 AM 24.8 °F 16.1 °F 24.8 °F 100% 30.25 in 10.0 mi WNW 8.1 mph - N/A   Unknown
5:15 AM 24.8 °F 14.6 °F 23.0 °F 93% 30.25 in 10.0 mi WNW 10.4 mph - N/A   Unknown
5:35 AM 26.6 °F 16.2 °F 23.0 °F 86% 30.24 in 10.0 mi WNW 11.5 mph - N/A   Clear
5:55 AM 26.6 °F 16.2 °F 23.0 °F 86% 30.24 in 10.0 mi WNW 11.5 mph - N/A   Clear
6:15 AM 24.8 °F 13.4 °F 23.0 °F 93% 30.25 in 10.0 mi WNW 12.7 mph - N/A   Clear
6:35 AM 24.8 °F 16.1 °F 23.0 °F 93% 30.25 in 10.0 mi WNW 8.1 mph - N/A   Clear
6:55 AM 24.8 °F 15.3 °F 23.0 °F 93% 30.25 in 10.0 mi WNW 9.2 mph - N/A   Clear
7:15 AM 24.8 °F 14.0 °F 23.0 °F 93% 30.25 in 10.0 mi West 11.5 mph - N/A   Clear
7:35 AM 24.8 °F 14.6 °F 23.0 °F 93% 30.25 in 10.0 mi WNW 10.4 mph - N/A   Unknown
7:55 AM 24.8 °F 14.6 °F 23.0 °F 93% 30.26 in 10.0 mi WNW 10.4 mph - N/A   Unknown
8:15 AM 26.6 °F 16.2 °F 24.8 °F 93% 30.26 in 10.0 mi WNW 11.5 mph - N/A   Unknown
8:35 AM 28.4 °F 16.6 °F 24.8 °F 86% 30.26 in 10.0 mi WNW 16.1 mph - N/A   Unknown
8:55 AM 28.4 °F 15.4 °F 24.8 °F 86% 30.26 in 10.0 mi NW 19.6 mph 24.2 mph N/A   Unknown
9:15 AM 30.2 °F 17.8 °F 24.8 °F 80% 30.26 in 10.0 mi NW 19.6 mph 27.6 mph N/A   Unknown
9:35 AM 30.2 °F 18.9 °F 24.8 °F 80% 30.27 in 10.0 mi NW 16.1 mph 26.5 mph N/A   Unknown
9:55 AM 32.0 °F 20.5 °F 24.8 °F 75% 30.27 in 10.0 mi NW 18.4 mph 28.8 mph N/A   Unknown
10:15 AM 32.0 °F 20.1 °F 24.8 °F 75% 30.27 in 10.0 mi NW 19.6 mph 28.8 mph N/A   Unknown
10:35 AM 32.0 °F 20.1 °F 26.6 °F 80% 30.27 in 10.0 mi WNW 19.6 mph 26.5 mph N/A   Unknown
10:55 AM 33.8 °F 21.9 °F 24.8 °F 70% 30.27 in 10.0 mi NW 21.9 mph 27.6 mph N/A   Unknown
11:35 AM 35.6 °F 24.5 °F 26.6 °F 70% 30.27 in 10.0 mi NW 20.7 mph 26.5 mph N/A   Scattered Clouds
12:15 PM 37.4 °F 26.9 °F 26.6 °F 65% 30.27 in 10.0 mi NW 20.7 mph 26.5 mph N/A   Mostly Cloudy
12:35 PM 39.2 °F 29.6 °F 26.6 °F 61% 30.27 in 10.0 mi NW 19.6 mph 25.3 mph N/A   Mostly Cloudy
12:55 PM 37.4 °F 28.2 °F 26.6 °F 65% 30.27 in 10.0 mi NNW 16.1 mph 26.5 mph N/A   Mostly Cloudy
1:35 PM 39.2 °F 29.6 °F 24.8 °F 56% 30.27 in 10.0 mi NW 19.6 mph 28.8 mph N/A   Mostly Cloudy
1:55 PM 39.2 °F 29.6 °F 24.8 °F 56% 30.27 in 10.0 mi NW 19.6 mph 25.3 mph N/A   Mostly Cloudy
2:15 PM 39.2 °F 29.8 °F 24.8 °F 56% 30.27 in 10.0 mi NW 18.4 mph 26.5 mph N/A   Overcast
2:35 PM 39.2 °F 29.0 °F 24.8 °F 56% 30.27 in 10.0 mi NW 21.9 mph 27.6 mph N/A   Overcast
2:55 PM 39.2 °F 29.6 °F 24.8 °F 56% 30.27 in 10.0 mi NW 19.6 mph 25.3 mph N/A   Overcast
3:15 PM 37.4 °F 27.5 °F 24.8 °F 60% 30.27 in 10.0 mi NW 18.4 mph 26.5 mph N/A   Overcast
3:35 PM 37.4 °F 27.2 °F 24.8 °F 60% 30.27 in 10.0 mi NW 19.6 mph 27.6 mph N/A   Mostly Cloudy
3:55 PM 37.4 °F 27.8 °F 24.8 °F 60% 30.27 in 10.0 mi NW 17.3 mph - N/A   Mostly Cloudy
4:15 PM 37.4 °F 26.4 °F 24.8 °F 60% 30.26 in 10.0 mi NW 23.0 mph - N/A   Overcast
4:35 PM 37.4 °F 26.9 °F 24.8 °F 60% 30.27 in 10.0 mi NW 20.7 mph 26.5 mph N/A   Mostly Cloudy
4:55 PM 37.4 °F 27.5 °F 24.8 °F 60% 30.27 in 10.0 mi NW 18.4 mph 26.5 mph N/A   Mostly Cloudy
5:15 PM 37.4 °F 27.2 °F 24.8 °F 60% 30.27 in 10.0 mi NW 19.6 mph 25.3 mph N/A   Overcast
5:35 PM 37.4 °F 28.2 °F 24.8 °F 60% 30.27 in 10.0 mi WNW 16.1 mph - N/A   Overcast
5:55 PM 37.4 °F 28.5 °F 24.8 °F 60% 30.27 in 10.0 mi NW 15.0 mph 25.3 mph N/A   Overcast
6:15 PM 37.4 °F 26.9 °F 24.8 °F 60% 30.27 in 10.0 mi NW 20.7 mph - N/A   Overcast
6:35 PM 37.4 °F 27.2 °F 24.8 °F 60% 30.27 in 10.0 mi NW 19.6 mph 23.0 mph N/A   Overcast
6:55 PM 37.4 °F 27.8 °F 24.8 °F 60% 30.28 in 10.0 mi NW 17.3 mph 21.9 mph N/A   Overcast
7:15 PM 37.4 °F 28.5 °F 24.8 °F 60% 30.28 in 10.0 mi NW 15.0 mph 21.9 mph N/A   Overcast
7:35 PM 37.4 °F 28.9 °F 24.8 °F 60% 30.29 in 10.0 mi NW 13.8 mph 21.9 mph N/A   Overcast
7:55 PM 37.4 °F 27.5 °F 24.8 °F 60% 30.30 in 10.0 mi NW 18.4 mph 21.9 mph N/A   Overcast
8:15 PM 35.6 °F 25.2 °F 26.6 °F 70% 30.30 in 10.0 mi NNW 18.4 mph - N/A   Overcast
8:35 PM 35.6 °F 25.2 °F 28.4 °F 75% 30.31 in 10.0 mi NNW 18.4 mph 21.9 mph N/A   Overcast
8:55 PM 33.8 °F 24.8 °F 28.4 °F 81% 30.31 in 10.0 mi NNW 12.7 mph 21.9 mph N/A   Overcast
9:15 PM 32.0 °F 21.2 °F 28.4 °F 87% 30.32 in 10.0 mi NW 16.1 mph 19.6 mph N/A   Scattered Clouds
9:35 PM 32.0 °F 22.1 °F 30.2 °F 93% 30.32 in 10.0 mi NW 13.8 mph - N/A   Partly Cloudy
9:55 PM 32.0 °F 23.0 °F 30.2 °F 93% 30.32 in 10.0 mi WNW 11.5 mph - N/A   Mostly Cloudy
10:15 PM 32.0 °F 23.0 °F 30.2 °F 93% 30.32 in 10.0 mi WNW 11.5 mph - N/A   Mostly Cloudy
10:35 PM 32.0 °F 22.5 °F 30.2 °F 93% 30.32 in 10.0 mi WNW 12.7 mph - N/A   Unknown
10:55 PM 32.0 °F 21.2 °F 30.2 °F 93% 30.32 in 10.0 mi WNW 16.1 mph - N/A   Unknown
11:55 PM 32.0 °F 22.5 °F 32.0 °F 100% 30.32 in 5.0 mi NW 12.7 mph - 0.03 in Rain Light Rain